Location: Marstown
(39.5056°N, 77.0820°W)
Time: 17:11:29
(UTC-04:00)

Mayak - Visible Passes

Search period start: 19 July 2018 00:00
Search period end: 29 July 2018 00:00
Orbit: 582 x 605 km, 97.6° (Epoch: 19 July)

Date Brightness Start Highest point End Pass type
(mag) Time Alt. Az. Time Alt. Az. Time Alt. Az.
19 Jul 0.1 00:43:17 10° N 00:46:01 38° NNW 00:46:01 38° NNW visible
19 Jul 1.3 23:18:35 10° ENE 23:18:36 10° ENE 23:18:36 10° ENE visible
20 Jul 0.3 00:52:31 10° N 00:55:13 34° NNW 00:55:13 34° NNW visible
20 Jul 1.2 23:27:07 10° NE 23:27:48 13° ENE 23:27:48 13° ENE visible
21 Jul 0.5 01:01:47 10° N 01:04:25 29° NW 01:04:25 29° NW visible
21 Jul 1.0 23:35:52 10° NE 23:37:01 15° NE 23:37:01 15° NE visible
22 Jul 0.7 01:11:08 10° NNW 01:13:37 25° NW 01:13:37 25° NW visible
22 Jul 0.9 23:44:44 10° NE 23:46:12 18° NE 23:46:12 18° NE visible
23 Jul 0.9 01:20:31 10° NNW 01:22:49 21° NW 01:22:49 21° NW visible
23 Jul 0.7 23:53:41 10° NNE 23:55:24 21° NE 23:55:24 21° NE visible
24 Jul 1.1 01:30:00 10° NNW 01:32:01 17° NW 01:32:01 17° NW visible
25 Jul 0.6 00:02:41 10° NNE 00:04:36 25° NE 00:04:36 25° NE visible
25 Jul 1.3 01:39:36 10° NNW 01:41:12 14° NW 01:41:12 14° NW visible
26 Jul 0.5 00:11:44 10° NNE 00:13:47 27° NNE 00:13:47 27° NNE visible
26 Jul 1.5 01:49:29 10° NW 01:50:24 11° NW 01:50:24 11° NW visible
27 Jul 0.5 00:20:50 10° NNE 00:22:59 29° NNE 00:22:59 29° NNE visible
28 Jul 0.5 00:29:58 10° N 00:32:10 30° N 00:32:10 30° N visible
